This is the latest recevied weather packets stored in our database for station/object KK6MIG-13. If no packets are shown the sender has not sent any weather packets the latest 1 day(s).
| Time | Temp. | Humidity | Pressure | Rain* | Wind** | Luminosity | Snow |
|---|---|---|---|---|---|---|---|
| 1778004452 | 14.44° C | 1% | 1014.7 hPa | 0 mm | 4.02 m/s, 265° | 501 W/m² | - |
| 1778004391 | 14.44° C | 1% | 1014.7 hPa | 0 mm | 4.02 m/s, 307° | 533 W/m² | - |
| 1778004331 | 14.44° C | 1% | 1014.7 hPa | 0 mm | 3.58 m/s, 271° | 563 W/m² | - |
| 1778004271 | 14.44° C | 1% | 1014.6 hPa | 0 mm | 3.58 m/s, 292° | 577 W/m² | - |
| 1778004211 | 14.44° C | 1% | 1014.6 hPa | 0 mm | 3.58 m/s, 302° | 524 W/m² | - |
| 1778004150 | 13.89° C | 1% | 1014.6 hPa | 0 mm | 4.02 m/s, 292° | 524 W/m² | - |
| 1778004091 | 13.89° C | 1% | 1014.6 hPa | 0 mm | 4.02 m/s, 299° | 548 W/m² | - |
| 1778004031 | 13.89° C | 1% | 1014.6 hPa | 0 mm | 4.02 m/s, 10° | 533 W/m² | - |
| 1778003971 | 13.89° C | 1% | 1014.6 hPa | 0 mm | 4.02 m/s, 277° | 538 W/m² | - |
| 1778003911 | 13.89° C | 1% | 1014.5 hPa | 0 mm | 4.02 m/s, 275° | 555 W/m² | - |
| 1778003852 | 13.89° C | 1% | 1014.6 hPa | 0 mm | 4.02 m/s, 288° | 566 W/m² | - |
| 1778003792 | 13.89° C | 1% | 1014.6 hPa | 0 mm | 4.02 m/s, 238° | 534 W/m² | - |
| 1778003731 | 13.89° C | 1% | 1014.5 hPa | 0 mm | 4.02 m/s, 246° | 489 W/m² | - |
| 1778003671 | 13.89° C | 1% | 1014.4 hPa | 0 mm | 4.02 m/s, 288° | 508 W/m² | - |
| 1778003611 | 13.89° C | 1% | 1014.5 hPa | 0 mm | 4.02 m/s, 286° | 533 W/m² | - |
| 1778003550 | 13.89° C | 1% | 1014.4 hPa | 0 mm | 3.58 m/s, 298° | 510 W/m² | - |
| 1778003490 | 13.89° C | 1% | 1014.4 hPa | 0 mm | 3.58 m/s, 284° | 520 W/m² | - |
| 1778003431 | 13.89° C | 1% | 1014.4 hPa | 0 mm | 3.58 m/s, 283° | 526 W/m² | - |
| 1778003371 | 13.89° C | 1% | 1014.4 hPa | 0 mm | 3.58 m/s, 296° | 492 W/m² | - |
| 1778003304 | 13.89° C | 1% | 1014.5 hPa | 0 mm | 3.58 m/s, 307° | 485 W/m² | - |
| 1778003245 | 13.89° C | 1% | 1014.5 hPa | 0 mm | 3.58 m/s, 279° | 480 W/m² | - |
| 1778003185 | 13.89° C | 1% | 1014.5 hPa | 0 mm | 3.58 m/s, 267° | 461 W/m² | - |
| 1778003125 | 13.89° C | 1% | 1014.5 hPa | 0 mm | 3.13 m/s, 279° | 438 W/m² | - |
| 1778003065 | 13.89° C | 1% | 1014.5 hPa | 0 mm | 3.13 m/s, 257° | 422 W/m² | - |
| 1778003004 | 13.89° C | 1% | 1014.5 hPa | 0 mm | 3.58 m/s, 278° | 420 W/m² | - |
* Rain latest hour (hover to see other rain measurements)
** Current wind speed in m/s (hover to see current wind gust speed)